IGO612V VOMM-VOBL

Flight info

Callsign IGO612V
Flight time N/A
Altitude 16000
Route MMV W117 BIA
Aircraft A21N/M-SDE2E3FGHIRWXY/LB1

Departure

Time 2026-04-24 10:56
Airport Chennai International Airport (VOMM)

Arrival

Time N/A
Airport Kempegowda International Airport Bengaluru (VOBL)
Time Latitude Longitude Altitude Speed Heading
2026-04-24 10:41 12.98584 80.16567 50 ft 0 kts 340°
2026-04-24 10:48 12.98577 80.16570 50 ft 2 kts 340°
2026-04-24 10:48 12.98563 80.16576 50 ft 2 kts 340°
2026-04-24 10:48 12.98554 80.16579 51 ft 2 kts 341°
2026-04-24 10:49 12.98541 80.16587 51 ft 2 kts 302°
2026-04-24 10:49 12.98536 80.16602 51 ft 2 kts 273°
2026-04-24 10:49 12.98537 80.16613 51 ft 0 kts 251°
2026-04-24 10:49 12.98540 80.16620 51 ft 0 kts 248°
2026-04-24 10:51 12.98540 80.16619 51 ft 0 kts 248°
2026-04-24 10:51 12.98539 80.16616 51 ft 0 kts 248°
2026-04-24 10:52 12.98536 80.16609 51 ft 1 kts 248°
2026-04-24 10:52 12.98532 80.16599 51 ft 2 kts 247°
2026-04-24 10:52 12.98525 80.16582 51 ft 3 kts 249°
2026-04-24 10:52 12.98514 80.16555 51 ft 5 kts 240°
2026-04-24 10:53 12.98500 80.16515 52 ft 7 kts 251°
2026-04-24 10:53 12.98479 80.16458 51 ft 10 kts 249°
2026-04-24 10:53 12.98450 80.16379 50 ft 13 kts 248°
2026-04-24 10:53 12.98415 80.16286 51 ft 15 kts 249°
2026-04-24 10:54 12.98374 80.16176 50 ft 16 kts 249°
2026-04-24 10:54 12.98333 80.16067 50 ft 17 kts 249°
2026-04-24 10:54 12.98291 80.15945 49 ft 17 kts 263°
2026-04-24 10:54 12.98316 80.15815 49 ft 19 kts 285°
2026-04-24 10:55 12.98354 80.15673 48 ft 21 kts 285°
2026-04-24 10:55 12.98396 80.15520 47 ft 16 kts 287°
2026-04-24 10:55 12.98470 80.15466 46 ft 15 kts 24°
2026-04-24 10:55 12.98531 80.15598 45 ft 43 kts 69°
2026-04-24 10:56 12.98727 80.16141 44 ft 115 kts 69°
2026-04-24 10:56 12.99100 80.17110 58 ft 172 kts 70°
2026-04-24 10:56 12.99637 80.18293 369 ft 193 kts 67°
2026-04-24 10:56 13.00185 80.19583 945 ft 202 kts 71°
2026-04-24 10:57 13.00732 80.20845 1799 ft 188 kts 69°
2026-04-24 10:57 13.01279 80.22066 2140 ft 194 kts 69°
2026-04-24 10:57 13.01897 80.23359 2369 ft 208 kts 60°
2026-04-24 10:57 13.03081 80.24283 2552 ft 229 kts 19°